星链-2240 (STARLINK-2240 )

导读 | 星芒AI

STARLINK-2240 是 SpaceX Starlink 项目中的一颗低轨通信卫星,属于第二代 Starlink 卫星星座的一部分。该卫星旨在为全球用户提供高速、低延迟的互联网服务,尤其服务于网络基础设施薄弱的地区。它采用先进的推进系统和激光通信技术,提升连接效率与稳定性。STARLINK-2240 于 2023 年发射,是 SpaceX 扩展其全球宽带网络计划的重要组成部分。

基本信息
目录编号:
48585
目录名称:
STARLINK-2240
国际标识:
2021-041AJ
轨道中心:
EARTH
卫星名称:
星链-2240
卫星全名:
星链-2240 (STARLINK-2240 )
卫星状态:
已陨落 最后检测时间 2025-01-01
发射日期:
2021-05-15 UTC
国别 :
美国 (US)
星等 :
--
轨道信息
数据来源 国际轨道数据
星历时间: 2025-01-02T08:26:43+0800
轨道信息已过期348天
半长轴: 6528.207km
偏心率: 0.0005097
轨道倾角: 53.024°
近地点辐角 247.625°
升交点赤经 260.503°
平近点角 209.321°
近地点: 146.744km
远地点: 153.4km
周期: 87.488分钟
每日圈数: 16.459323
详细信息
固有亮度:
5
最大亮度:
2.5
卫星平台:
Starlink V1.0
覆盖范围:
全球
运营商:
太空探索技术公司
运营商所在国:
美国
制造商(研发单位):
太空探索技术公司
制造商所在国:
美国
使用方式:
暂无
卫星简介
星链(Starlink)计划是由太空探索技术公司(SpaceX)提出的一个巨型低轨卫星互联网星座项目,计划在2019年至2024年间在太空搭建由约1.2万颗卫星组成的“星链”网络,其中1584颗将部署在地球上空550千米处的近地轨道,并从2020年开始工作。该卫星仍在工作。